Temp
29 31 32 32 32 32 31 31 30 29 30 30 29 29 28 28 29 28 28 28 28 29 29 28 27 27 26 26 25 25 25 26 25 24 23 24 24 24 24 25 26 26 25 25
31 32 33 32 31 30 31 31 31 30 30 30 29 29 28 28 29 29 29 29 29 30 30 29 28 27 27 26 25 26 27 26 26 26 25 24 24 24 25 25 26 26 25 25
32 33 32 32 33 31 31 31 31 31 29 29 29 28 28 29 29 29 29 29 30 29 30 30 29 28 28 27 25 26 27 27 27 26 25 24 24 24 24 25 26 26 26 25
32 33 32 33 33 32 32 31 31 30 30 30 29 31 28 29 28 29 30 30 30 30 30 30 29 29 28 28 27 26 27 27 27 26 25 24 24 25 26 26 26 26 26 25
33 33 33 33 34 32 31 31 31 31 30 30 29 30 30 28 28 29 30 30 31 31 31 31 29 29 29 28 27 26 25 26 26 27 26 24 24 25 25 26 26 26 25 25
33 32 32 34 31 32 31 31 30 30 31 31 29 30 32 29 30 30 30 30 30 30 30 30 30 28 28 28 26 26 24 26 26 26 26 25 24 24 25 25 25 25 25 24
32 33 33 33 32 31 31 33 32 32 32 31 28 29 32 31 30 30 30 30 30 30 29 30 29 28 28 28 27 26 24 24 26 26 26 25 26 25 24 25 25 25 25 25
33 34 34 34 35 34 32 34 35 33 33 32 28 31 33 30 30 29 30 29 29 28 30 30 30 29 28 28 27 26 25 25 25 27 26 26 26 24 24 25 25 25 25 25
31 34 34 33 34 34 33 33 32 31 28 31 30 30 31 31 29 29 28 28 28 29 28 28 29 27 28 28 27 27 26 25 25 26 27 26 26 25 24 25 26 25 26 25
32 33 33 33 33 32 34 31 34 33 32 32 31 30 32 31 29 28 28 28 28 28 28 29 29 29 28 28 29 27 27 26 26 26 27 27 27 26 26 26 26 25 26 26
33 33 34 32 34 34 33 34 30 32 31 34 33 34 30 30 28 28 28 28 28 28 27 29 28 27 27 28 28 28 26 26 25 26 27 26 27 27 25 25 26 27 26 26
32 33 34 34 33 31 33 33 35 36 32 30 32 33 28 29 29 28 28 27 27 26 26 27 26 27 27 28 27 27 27 27 25 26 27 27 25 26 25 25 25 26 26 26
31 31 34 35 34 32 33 31 30 32 32 31 34 33 26 27 28 27 28 27 26 26 26 25 26 26 26 26 27 26 26 26 26 25 25 25 25 24 25 25 24 24 25 26
31 31 33 34 33 31 33 32 31 33 35 33 34 30 28 29 28 27 27 27 26 25 25 25 25 24 24 24 24 25 25 25 25 25 25 25 25 25 25 24 24 24 25 25
33 33 31 31 31 30 31 32 32 33 33 36 31 33 32 31 29 28 27 26 26 25 25 25 25 24 24 23 24 24 25 25 25 24 24 24 24 24 24 24 24 24 24 25
31 32 30 33 32 32 32 32 30 31 30 31 31 30 30 28 29 28 27 26 25 26 25 24 25 24 23 22 22 22 21 21 22 24 24 23 23 23 23 23 23 24 25 25
31 32 32 33 31 33 33 31 32 31 30 31 34 31 29 29 29 28 28 27 26 26 26 25 24 23 22 22 22 21 21 21 21 21 21 21 21 21 21 22 22 24 23 24
30 30 29 33 32 32 32 31 30 31 30 31 30 29 31 30 29 28 28 28 27 27 26 26 25 23 22 22 21 21 21 21 21 21 21 22 22 22 21 22 23 23 24 25
28 30 29 32 31 31 33 31 31 32 32 31 30 30 29 28 29 28 27 27 27 28 26 25 24 23 22 22 21 21 21 21 21 22 21 21 21 21 21 22 21 23 23 23
28 28 32 28 31 31 31 31 31 31 34 31 31 30 29 29 31 29 28 28 27 27 26 26 25 24 24 22 22 22 22 21 21 21 20 20 20 20 20 21 21 22 22 21
29 28 31 29 31 31 30 30 30 32 32 30 30 30 29 30 30 29 28 27 27 27 26 25 25 25 24 23 22 23 23 23 21 22 21 21 21 21 20 20 19 20 20 21
30 30 30 28 29 30 28 30 32 30 28 29 30 29 28 29 28 28 28 28 27 27 25 25 25 25 24 23 22 23 23 22 23 22 21 21 20 20 20 21 21 21 21 20
29 29 31 30 31 27 27 28 28 28 29 28 29 29 30 30 29 28 28 28 29 28 26 26 26 25 24 22 22 23 23 23 23 22 22 22 22 21 20 20 20 20 19 19
26 25 29 28 27 28 29 28 29 29 30 30 30 29 30 30 30 29 29 29 29 28 27 25 25 25 24 23 23 23 23 23 23 21 21 20 20 22 21 21 20 19 19 19
27 25 27 28 27 27 29 29 30 29 29 30 29 30 30 30 29 29 28 28 27 26 26 25 25 24 24 23 24 24 23 23 23 21 21 21 21 20 20 19 19 19 17 18
27 28 29 30 29 29 30 29 29 29 30 30 30 29 28 28 29 27 27 26 26 26 25 24 24 24 23 23 23 23 23 23 22 22 22 22 21 21 20 20 18 17 17 18
Height
793 799 801 795 791 791 798 802 807 807 800 806 809 811 812 811 811 816 817 818 818 817 818 822 825 828 830 832 834 837 839 841 844 846 849 851 853 855 855 856 855 856 857 857
798 802 783 785 788 797 799 804 803 805 800 802 810 813 809 808 808 808 814 815 815 814 816 818 822 824 827 829 829 832 835 838 841 844 846 849 851 853 854 854 854 854 855 856
798 787 783 786 786 798 799 799 798 802 805 802 809 819 817 808 807 808 809 809 810 812 813 815 818 819 822 823 824 826 830 834 838 842 844 847 849 851 852 852 852 853 854 855
790 776 785 785 788 787 799 786 790 801 809 821 810 824 818 808 810 807 803 804 805 806 809 812 814 816 816 816 820 823 826 830 835 839 842 845 847 849 850 850 850 851 852 853
789 786 789 792 783 780 797 782 791 799 809 813 820 825 810 808 811 803 798 798 799 800 801 804 808 809 810 815 816 819 822 826 831 835 839 842 845 847 848 848 849 850 851 852
783 778 782 779 781 777 784 792 799 803 806 822 824 821 804 811 799 793 793 794 796 799 799 800 803 806 807 810 813 815 817 821 825 830 835 838 841 843 845 847 849 850 850 851
788 782 774 772 788 786 787 791 819 825 823 827 822 824 800 790 789 788 789 792 793 793 797 798 799 802 805 807 809 812 815 817 821 825 830 834 837 840 842 845 846 848 849 849
800 801 774 766 770 780 787 786 798 832 828 820 819 819 795 785 786 787 785 788 791 791 792 794 797 800 802 804 806 808 811 814 817 821 824 829 833 837 839 841 843 845 846 847
803 791 765 767 764 767 783 795 789 811 830 823 816 804 789 781 790 790 790 790 791 790 791 794 797 799 800 801 801 803 806 809 813 817 821 824 829 832 835 838 840 842 844 845
783 797 771 768 765 771 770 782 797 797 829 830 816 817 803 790 796 794 794 791 791 791 792 792 794 794 796 797 800 802 804 806 808 812 815 818 823 827 830 833 836 838 840 842
775 785 779 776 776 777 781 783 798 795 808 810 818 802 790 790 794 795 793 791 790 790 789 788 790 791 792 794 797 799 801 804 805 808 811 814 817 821 826 829 831 833 837 840
774 778 787 781 769 771 771 780 775 789 813 813 805 802 790 787 789 790 791 791 790 789 788 788 788 787 787 789 792 793 796 799 800 804 807 809 813 816 820 823 826 828 831 834
771 787 793 783 775 774 777 784 786 783 786 806 799 801 796 792 791 791 789 790 791 791 789 788 785 784 786 787 788 790 791 794 797 800 804 806 809 813 817 820 822 825 827 829
767 785 786 793 790 789 783 782 784 777 785 794 790 799 799 793 793 792 790 789 790 788 787 785 785 786 787 786 785 787 789 792 795 797 800 802 805 807 810 814 817 820 822 824
765 784 789 788 786 788 786 782 780 785 778 779 795 785 786 787 787 789 790 792 792 792 790 790 788 788 789 787 787 786 788 791 794 796 798 799 803 805 807 807 809 813 815 817
771 790 790 787 783 782 787 781 785 786 787 788 786 795 785 786 785 790 794 796 796 795 795 793 791 790 793 792 793 793 793 792 794 796 797 799 800 802 803 808 811 812 811 808
778 783 791 797 790 781 793 786 780 780 782 782 781 784 787 789 790 792 794 794 796 796 796 797 798 797 797 798 798 797 797 796 796 797 797 799 800 803 807 805 809 806 816 809
785 789 798 796 792 815 783 774 776 778 780 778 781 783 779 783 788 791 792 792 794 795 797 799 800 802 802 801 800 799 797 797 798 799 799 799 799 801 803 804 804 806 809 803
782 787 803 802 805 798 778 778 779 779 782 774 779 780 781 785 787 794 791 793 794 794 797 799 801 803 802 801 799 799 799 799 798 798 799 799 799 799 801 801 801 802 797 794
785 786 786 808 812 817 787 775 768 769 785 771 771 777 781 783 793 793 789 792 794 795 796 798 800 802 802 801 799 799 800 800 799 798 798 799 799 800 800 800 798 795 793 793
793 795 797 805 803 791 778 773 768 793 792 769 769 773 779 784 782 781 787 792 793 795 797 799 799 799 799 799 799 798 798 799 799 799 799 800 798 798 798 798 797 795 795 793
790 793 798 807 806 809 775 772 782 777 772 769 770 773 779 778 782 783 787 789 791 794 796 797 797 797 798 798 797 798 798 799 799 799 799 799 798 798 796 794 793 793 792 791
793 787 785 786 788 779 776 775 770 770 770 771 771 773 774 777 780 783 784 786 788 790 794 795 796 797 797 798 798 799 798 798 799 799 798 797 796 796 795 795 796 795 794 793
786 786 783 787 783 778 772 770 769 768 768 768 769 772 774 776 778 780 782 784 786 790 793 795 795 796 797 798 798 798 799 799 798 798 798 798 797 796 795 794 793 792 793 793
781 785 784 782 778 776 771 769 767 769 769 769 771 772 774 776 779 781 784 786 789 791 793 794 796 797 797 797 797 798 798 798 798 798 798 798 797 796 795 795 795 795 795 795
776 775 779 778 768 770 769 767 768 769 769 770 771 774 776 777 778 782 784 787 790 792 793 795 796 796 796 796 796 796 797 797 798 799 799 798 797 797 797 797 796 796 795 795
Wind_Speed
2 3 5 6 11 7 6 9 5 2 4 3 5 7 13 14 13 13 14 15 14 15 16 15 17 17 17 17 18 18 18 20 18 14 10 10 10 9 10 10 7 6 5 6
3 8 10 7 5 7 9 9 9 3 4 2 4 4 11 16 16 16 14 14 15 16 14 15 17 18 19 20 21 23 23 22 20 18 15 10 10 8 11 9 8 8 6 5
7 5 1 7 10 7 6 11 8 4 5 3 3 4 11 12 12 12 13 14 15 16 16 15 17 20 21 22 23 25 25 25 24 19 15 12 11 10 8 8 8 8 6 5
8 6 6 9 11 7 3 5 8 11 9 3 1 1 6 13 15 15 17 17 17 17 16 15 18 20 24 27 22 23 24 25 24 22 17 14 11 10 8 8 8 8 7 7
5 3 3 5 8 6 4 9 12 9 4 2 3 3 2 8 15 19 18 17 16 14 15 15 19 23 26 22 23 20 21 23 23 23 21 17 15 12 8 8 5 5 8 8
13 0 3 3 5 4 14 15 11 4 1 3 2 3 2 6 10 13 15 16 16 14 11 11 16 16 18 18 18 17 20 24 25 26 24 22 17 14 11 10 6 4 3 6
4 9 3 5 8 7 2 5 3 1 2 1 1 3 5 5 4 3 7 10 14 12 12 10 12 16 17 19 18 17 18 21 24 25 25 25 22 18 16 13 8 6 6 8
3 8 9 9 6 6 13 4 2 2 2 3 3 3 2 3 6 5 4 5 6 10 13 13 12 15 18 20 20 19 19 20 22 25 25 25 25 19 15 14 11 9 8 7
5 4 1 1 3 3 7 4 2 6 1 3 1 2 6 7 10 7 7 7 4 6 7 8 11 12 16 20 23 24 22 21 22 22 24 26 26 24 18 17 15 10 11 9
1 4 2 4 2 9 3 9 4 2 2 3 2 3 0 5 11 10 8 7 7 4 4 3 6 13 15 19 18 20 21 21 21 21 24 24 25 26 24 20 18 16 13 13
5 3 2 3 0 3 5 4 6 4 2 2 1 2 2 2 10 9 10 7 5 3 1 3 6 10 14 14 17 18 20 20 20 23 24 23 23 24 23 20 20 20 17 15
4 1 3 2 1 1 1 2 4 4 5 0 2 3 2 3 4 5 6 4 4 4 4 6 9 9 11 15 16 22 19 21 23 24 26 26 22 20 20 21 20 19 19 18
7 1 2 3 4 3 1 2 2 4 3 5 2 4 2 4 3 3 6 6 4 5 5 5 4 4 5 10 15 18 19 20 18 19 21 19 18 17 16 14 14 14 16 18
3 3 2 3 2 3 1 1 7 2 3 7 2 6 7 10 7 6 6 6 8 9 10 8 6 5 5 4 7 10 13 14 16 17 18 19 19 18 16 14 12 11 12 14
1 3 1 4 3 1 4 3 7 4 3 3 6 11 10 8 8 8 7 6 6 8 9 8 7 7 9 9 6 3 6 9 12 13 13 14 13 15 15 16 14 11 9 7
2 2 1 1 7 1 2 4 2 2 3 2 11 10 6 7 8 8 7 7 6 7 7 7 8 10 11 12 12 10 9 6 3 8 9 9 10 13 14 10 7 7 8 4
2 3 1 1 8 3 4 5 4 1 2 1 4 7 13 11 10 6 6 8 9 7 7 7 6 7 8 9 11 11 9 9 5 2 3 5 8 8 11 10 6 4 9 7
1 3 1 1 4 3 4 3 5 1 3 4 8 13 11 13 10 8 4 7 7 8 7 6 7 6 4 4 7 8 9 6 3 5 5 4 4 7 7 5 5 10 10 5
1 2 3 1 2 5 2 3 2 3 4 4 9 12 13 12 11 7 6 5 3 6 7 7 7 6 5 5 5 6 6 4 2 4 5 5 6 8 8 6 5 6 3 3
4 3 1 2 2 4 2 2 4 2 1 6 8 14 15 12 6 5 9 7 6 4 3 3 3 3 3 3 3 3 5 4 3 3 4 6 7 8 9 6 5 6 6 6
3 3 2 3 3 3 2 5 3 4 2 3 9 13 14 6 3 8 10 8 8 6 4 1 1 3 3 3 3 4 6 6 2 1 1 2 3 5 5 6 4 5 6 7
2 4 3 3 2 4 2 3 3 3 2 3 7 11 11 6 7 11 11 9 8 7 5 2 2 4 5 4 2 3 5 5 5 3 4 5 4 3 4 6 6 7 9 8
3 1 1 3 1 2 3 4 5 1 2 3 8 8 10 8 9 9 8 6 4 1 4 1 2 2 2 1 1 2 4 4 5 7 7 7 8 10 10 11 10 9 7 8
2 2 2 3 3 3 3 2 1 2 6 6 6 9 10 7 7 6 4 3 3 0 3 4 3 3 2 1 2 4 4 5 6 6 5 5 5 7 9 8 8 8 8 7
1 5 3 2 3 4 5 5 3 4 4 6 5 5 7 6 7 6 6 4 3 3 3 3 3 3 1 1 4 6 6 6 7 5 4 4 5 5 7 8 7 7 7 8
5 4 4 3 5 1 2 2 4 5 7 6 6 4 4 6 6 6 6 7 6 5 2 1 1 2 2 3 4 5 7 7 6 4 4 4 5 7 5 6 4 6 3 3
Wind_Direction
101 228 253 251 230 275 271 265 243 166 176 197 199 164 173 186 186 186 201 198 207 223 218 212 214 214 218 222 222 223 223 227 222 226 231 241 249 264 280 278 288 294 302 320
185 266 269 254 269 245 245 249 257 97 155 265 152 166 183 186 200 192 208 217 220 221 222 234 222 221 218 220 224 228 231 232 229 230 234 236 245 255 272 261 269 272 282 292
248 260 74 291 302 256 220 212 215 196 151 65 149 175 178 203 211 210 215 227 229 236 232 219 226 227 228 227 225 228 230 233 232 230 235 239 239 261 252 253 265 263 267 247
263 283 275 275 277 236 236 231 205 157 174 229 285 344 201 191 206 216 217 219 230 232 231 236 228 227 229 231 230 231 233 231 230 228 226 223 218 227 229 257 264 259 239 235
223 271 230 275 284 182 32 131 158 148 151 203 133 251 137 189 214 216 217 220 226 231 230 226 218 220 226 228 224 223 227 228 222 222 224 220 218 221 231 251 277 249 241 230
261 287 259 259 31 155 128 110 104 94 193 257 68 282 176 190 227 230 217 219 221 221 230 224 221 219 214 213 220 217 218 222 218 217 221 222 222 222 231 240 240 248 241 236
248 247 227 189 101 147 177 195 104 122 227 307 130 234 287 263 174 141 183 206 217 223 218 223 209 211 212 208 211 215 213 215 214 215 219 224 227 229 233 236 244 247 251 249
191 233 187 181 213 194 200 252 264 332 303 354 186 240 95 345 116 135 174 169 189 209 217 216 221 217 216 213 212 211 214 213 212 216 222 226 231 228 232 236 245 255 250 276
187 251 75 203 168 207 167 195 74 109 140 271 335 274 271 47 115 175 184 175 173 201 200 213 235 236 233 223 213 214 215 218 219 217 221 228 232 230 230 237 245 251 258 273
172 279 176 103 102 59 245 132 169 93 171 256 252 279 5 30 73 107 123 112 97 109 128 181 247 239 235 235 230 224 221 221 220 215 221 225 231 234 234 236 237 245 258 263
179 251 133 183 314 164 147 169 68 103 308 274 281 77 204 120 91 88 93 66 65 77 179 271 265 245 236 239 231 228 226 225 221 222 225 225 228 232 236 233 236 240 250 259
180 231 316 10 50 350 23 119 190 228 189 233 311 99 34 191 79 55 57 58 2 350 315 273 260 249 233 234 225 223 225 227 229 232 232 233 233 230 229 236 241 243 247 249
171 184 143 138 153 152 64 80 107 116 137 184 205 122 120 132 69 45 37 43 51 11 3 340 324 274 249 251 236 229 229 232 227 227 231 232 232 233 235 236 239 246 254 256
125 91 329 230 26 348 31 111 155 268 190 158 188 138 166 159 125 92 79 56 28 12 5 12 22 4 323 271 236 238 239 236 232 229 227 229 230 227 223 226 233 237 248 256
358 91 50 75 355 229 296 289 220 248 295 244 125 145 153 119 110 90 78 71 50 34 26 28 31 14 0 360 356 306 254 247 239 238 234 233 230 223 220 213 212 216 228 236
358 97 316 84 8 49 127 30 104 209 202 108 138 102 118 114 109 107 104 105 89 74 58 30 16 20 19 17 23 27 31 21 323 254 243 225 210 206 199 185 160 178 181 157
27 120 10 236 344 317 198 352 323 149 187 355 148 128 156 140 127 121 121 110 107 92 84 83 70 53 47 54 45 35 29 26 32 87 102 137 165 173 165 153 189 287 290 306
120 101 47 337 319 254 63 316 261 343 101 126 104 147 152 134 121 126 118 103 107 112 105 97 93 85 63 36 35 38 44 39 107 124 130 135 185 223 234 246 218 210 229 267
352 140 105 267 259 318 186 39 358 9 119 130 133 144 135 129 125 121 136 139 136 113 112 99 95 86 75 53 53 68 61 56 100 200 229 241 246 246 233 224 224 247 269 302
96 70 252 150 223 230 51 6 325 261 180 156 158 154 152 153 160 155 170 175 194 166 121 106 105 94 68 41 20 26 34 27 350 316 298 283 285 278 278 276 292 303 304 296
134 75 202 160 225 266 256 300 302 203 57 158 166 161 159 162 68 141 161 182 185 176 191 203 326 347 336 333 353 355 357 33 37 38 278 325 313 289 281 292 304 313 306 307
164 157 153 141 204 237 27 273 247 30 75 168 170 162 157 121 136 154 165 171 166 169 166 190 267 297 305 312 325 329 342 359 33 21 344 328 324 328 325 321 317 316 312 308
174 265 124 231 97 331 287 283 314 261 123 138 159 165 164 139 155 165 166 167 176 147 88 130 256 263 286 282 225 295 316 317 325 331 331 336 341 340 340 336 329 322 312 304
203 178 185 202 169 254 317 166 164 117 113 127 143 165 176 166 159 164 171 191 230 276 86 107 88 62 51 143 213 244 273 286 293 312 336 340 342 336 339 333 319 319 319 311
43 164 170 235 241 255 235 221 184 159 153 131 131 154 182 180 182 187 184 187 190 162 122 97 92 90 49 320 261 250 257 265 279 302 321 332 334 337 342 346 329 320 303 285
192 182 199 211 193 182 218 188 202 201 190 174 165 161 183 213 204 176 173 170 156 157 159 174 15 312 283 266 255 248 237 240 236 254 272 309 317 331 352 357 353 342 285 287